Regional Weather Roundup
Issued by NWS

Home | Current Version | Previous Version | Graphics & Text | Print | Product List | Glossary On
Versions: 1 2 3 4 5 6 7 8 9 10 11 12 13 14 15 16 17 18 19 20 21 22 23 24 25 26 27 28
000
ASUS45 KSLC 312310
RWRUT

UTAH REGIONAL WEATHER ROUNDUP
NATIONAL WEATHER SERVICE SALT LAKE CITY UT
500 PM MDT FRI OCT 31 2014

UTZ001>011-023>025-010000-

NORTHERN UTAH

CITY           SKY/WX    TMP DP  RH WIND       PRES   REMARKS
BRIGHAM CITY   PTSUNNY   72  21  14 SW8       29.86F
HILL AFB       SUNNY     70  29  21 S12       29.88S
LOGAN          SUNNY     69  28  21 SW10      29.86F
OGDEN          MOSUNNY   70  31  23 W6        29.86S
PROVO AIRPORT  MOSUNNY   72  28  20 S6        29.88F
SALT LAKE CITY PTSUNNY   75  20  12 S14       29.84F
VERNAL         SUNNY     61  28  28 E5        30.05F
WENDOVER       CLOUDY    61  28  29 CALM      29.84F
HEBER CITY     MOSUNNY   70  23  17 SW6       29.94F
WEST JORDAN    SUNNY     72  36  26 S9        29.87F

$$

UTZ012>022-026-027-010000-

SOUTHERN/CENTRAL UTAH

CITY           SKY/WX    TMP DP  RH WIND       PRES   REMARKS
BLANDING       MOSUNNY   67  27  22 SE12      30.18F
BRYCE CANYON   SUNNY     59  29  31 S13G23    30.12F
CEDAR CITY     SUNNY     70  27  20 SW14      29.93F
DELTA          SUNNY     74  27  17 SW17G29   29.87F
HANKSVILLE       N/A     70  23  17 CALM      30.01F
MILFORD        SUNNY     73  26  17 S17G29    29.89F
MOAB/CYNLANDS  SUNNY     68  25  19 N3        30.00F
PRICE          SUNNY     62  19  19 SE9       30.07F
ST GEORGE      PTCLDY    82  36  18 W7        29.82F
KANAB            N/A     75  32  20 S14G22    29.98F

$$

REGIONAL REPORTS     COLORADO/ARIZONA

CITY           SKY/WX    TMP DP  RH WIND       PRES   REMARKS
CRAIG, CO      MOSUNNY   66  20  17 SW17G24   30.08S
GRAND JUNCTION MOSUNNY   67  26  21 W8        30.05S
RIFLE          MOSUNNY   69  24  18 VRB3      30.07F
MONTROSE       PTSUNNY   67  29  24 CALM      30.12F
CORTEZ         SUNNY     66  27  23 SE13      30.14F
PAGE, AZ       MOSUNNY   71  25  17 N3        29.96F
GRAND CANYON   SUNNY     68  31  25 SW16G24   30.09S
KINGMAN        SUNNY     81  32  17 S17G26    29.87F
FLAGSTAFF      SUNNY     64  33  31 SW16G24   30.14F

$$

REGIONAL REPORTS    NEVADA/IDAHO/WYOMING

CITY           SKY/WX    TMP DP  RH WIND       PRES   REMARKS
LAS VEGAS, NV  PTSUNNY   84  29  13 S14G22    29.72F
ELY            CLOUDY    64  20  18 S16G28    29.90F
ELKO           PTSUNNY   67  18  15 S10       29.79F
POCATELLO, ID  SUNNY     67  27  22 S18G26    29.85F
BURLEY         CLOUDY    60  35  39 S6        29.81F
EVANSTON, WY   PTSUNNY   64  18  17 SW18G30   30.00F
ROCK SPRINGS   SUNNY     61  19  19 S17G25    30.02S
KEMMERER       MOSUNNY   57  21  24 SE7       30.03S

$$



USA.gov is the U.S. government's official web portal to all federal, state and local government web resources and services.